Willimantic, CT

7:23 PM EDT on October 21, 2019 (GMT -0400)
Windham

Weather History for KIJD - August, 2019

Change the Weather History Date:

Sunday, August 4, 2019

  Actual Average Record
Temperature  
Mean Temperature 76 °F -  
Max Temperature 87 °F 84 °F 94 °F (1975)
Min Temperature 66 °F 63 °F 41 °F (1964)
Cooling Degree Days 11    
Growing Degree Days 26 (Base 50)    
Moisture  
Dew Point 66 °F    
Average Humidity 74    
Maximum Humidity 93    
Minimum Humidity 44    
Precipitation  
Precipitation 0.00 in - - ()
Sea Level Pressure  
Sea Level Pressure 29.91 in    
Wind  
Wind Speed 2 mph (NW)    
Max Wind Speed 9 mph    
Max Gust Speed 17 mph    
Visibility 10 miles    
Events      
Averages and records for this station are not official NWS values.
T = Trace of Precipitation, MM = Missing Value Source: NWS Daily Summary

Daily Weather History Graph

Daily Weather History Graph

Search for Another Location

Airport or City:

Astronomy

Aug. 04, 2019 Rise Set
Actual Time 5:45 AM EDT 8:03 PM EDT
Civil Twilight 5:14 AM EDT 8:34 PM EDT
Nautical Twilight 4:36 AM EDT 9:12 PM EDT
Astronomical Twilight 3:53 AM EDT 9:54 PM EDT
Moon 9:50 AM EDT (8/4) 10:37 PM EDT (8/4)
Length of Visible Light 15h 19m
Length of Day
14h 17m
Waxing Crescent, 18% of the Moon is Illuminated
Aug 4
Waxing Crescent
Aug 7
First Quarter
Aug 15
Full
Aug 23
Last Quarter
Aug 30
New

Hourly Weather History & Observations

Time (EDT) Temp. Heat Index Dew Point Humidity Pressure Visibility Wind Dir Wind Speed Gust Speed Precip Events Conditions
12:25 AM 73.9 °F - 69.1 °F 85% 29.95 in 10.0 mi SSW 3.5 mph - N/A   Mostly Cloudy
12:52 AM 73.9 °F - 70.0 °F 87% 29.94 in 10.0 mi SW 3.5 mph - N/A   Overcast
1:35 AM 73.0 °F - 70.0 °F 90% 29.93 in 10.0 mi Calm Calm - N/A   Scattered Clouds
1:52 AM 73.0 °F - 70.0 °F 90% 29.92 in 10.0 mi Calm Calm - N/A   Mostly Cloudy
2:33 AM 71.1 °F - 69.1 °F 93% 29.93 in 10.0 mi Calm Calm - N/A   Scattered Clouds
2:44 AM 72.0 °F - 70.0 °F 93% 29.93 in 10.0 mi Calm Calm - N/A   Mostly Cloudy
2:52 AM 72.0 °F - 69.1 °F 91% 29.92 in 10.0 mi Calm Calm - N/A   Mostly Cloudy
3:09 AM 71.1 °F - 69.1 °F 93% 29.92 in 10.0 mi Calm Calm - N/A   Mostly Cloudy
3:24 AM 72.0 °F - 69.1 °F 91% 29.91 in 10.0 mi West 3.5 mph - N/A   Scattered Clouds
3:52 AM 71.1 °F - 69.1 °F 93% 29.91 in 10.0 mi Calm Calm - N/A   Clear
4:52 AM 69.1 °F - 66.9 °F 93% 29.91 in 10.0 mi West 3.5 mph - N/A   Clear
5:52 AM 66.9 °F - 64.9 °F 93% 29.91 in 10.0 mi Calm Calm - N/A   Clear
6:52 AM 69.1 °F - 64.9 °F 87% 29.91 in 10.0 mi Calm Calm - N/A   Clear
7:52 AM 72.0 °F - 64.9 °F 78% 29.91 in 10.0 mi Calm Calm - N/A   Clear
8:52 AM 75.0 °F - 64.0 °F 69% 29.92 in 10.0 mi Variable 4.6 mph - N/A   Clear
9:52 AM 79.0 °F - 63.0 °F 58% 29.91 in 10.0 mi NNW 5.8 mph - N/A   Clear
10:52 AM 81.0 °F 82.5 °F 64.0 °F 56% 29.91 in 10.0 mi NNW 6.9 mph - N/A   Clear
11:52 AM 82.9 °F 83.7 °F 62.1 °F 49% 29.90 in 10.0 mi North - - N/A   Clear
12:52 PM 84.0 °F 84.5 °F 62.1 °F 47% 29.89 in 10.0 mi North - - N/A   Partly Cloudy
1:52 PM 84.9 °F 85.9 °F 63.0 °F 48% 29.89 in 10.0 mi NNW 9.2 mph 17.3 mph N/A   Scattered Clouds
2:52 PM 84.9 °F 85.4 °F 62.1 °F 46% 29.87 in 10.0 mi North - - N/A   Partly Cloudy
3:52 PM 86.0 °F 86.3 °F 62.1 °F 44% 29.86 in 10.0 mi Variable 5.8 mph - N/A   Partly Cloudy
4:52 PM 84.0 °F 84.5 °F 62.1 °F 47% 29.86 in 10.0 mi NW 4.6 mph - N/A   Mostly Cloudy
5:52 PM 84.0 °F 85.4 °F 64.0 °F 51% 29.87 in 10.0 mi NNW 5.8 mph - N/A   Partly Cloudy
6:52 PM 82.0 °F 83.4 °F 64.0 °F 54% 29.88 in 10.0 mi NNW 4.6 mph - N/A   Mostly Cloudy
7:52 PM 80.1 °F 81.7 °F 64.0 °F 58% 29.89 in 10.0 mi Calm Calm - N/A   Mostly Cloudy
8:52 PM 75.0 °F - 64.0 °F 69% 29.91 in 10.0 mi Calm Calm - N/A   Clear
9:52 PM 73.0 °F - 66.9 °F 81% 29.93 in 10.0 mi North 3.5 mph - N/A   Mostly Cloudy
10:52 PM 71.1 °F - 66.0 °F 84% 29.94 in 10.0 mi North 3.5 mph - N/A   Mostly Cloudy
11:52 PM 70.0 °F - 66.0 °F 87% 29.95 in 10.0 mi Calm Calm - N/A   Clear